星链-31109 (STARLINK-31109 )

导读

STARLINK-31109是美国SpaceX公司星链星座的一员,于2023年12月29日发射入轨,运行在低地球轨道(LEO)。作为星链全球卫星互联网项目的组成部分,它搭载相控阵天线与霍尔推进器,参与构建全球覆盖的高速低延迟通信网络,为地面偏远地区及特殊场景提供互联网接入服务,助力星链星座的扩展与组网完善,单星设计寿命超5年,退役后将主动离轨焚毁。

Basic Information
目录编号:
58687
目录名称:
STARLINK-31109
国际标识:
2023-211W
轨道中心:
EARTH
卫星名称:
星链-31109
卫星全名:
星链-31109 (STARLINK-31109 )
卫星状态:
已陨落 最后检测时间 2024-05-18
发射日期:
2023-12-29 UTC
国别 :
美国 (US)
星等 :
--
Orbit Information
数据来源 国际轨道数据
星历时间: 2024-05-18T04:49:04+0800
轨道信息已过期801天
半长轴: 6584.434km
偏心率: 0.0000988
轨道倾角: 42.978°
近地点辐角 243.317°
升交点赤经 160.429°
平近点角 251.998°
近地点: 205.648km
远地点: 206.95km
周期: 88.621分钟
每日圈数: 16.248944
Detailed Information
固有亮度:
5
最大亮度:
0.3
卫星平台:
Starlink v2.0 mini
覆盖范围:
全球
运营商:
太空探索技术公司
运营商所在国:
美国
制造商(研发单位):
太空探索技术公司
制造商所在国:
美国
使用方式:
暂无
Satellite Introduction
星链(Starlink)计划是由太空探索技术公司(SpaceX)提出的一个巨型低轨卫星互联网星座项目,计划在2019年至2024年间在太空搭建由约1.2万颗卫星组成的“星链”网络,其中1584颗将部署在地球上空550千米处的近地轨道,并从2020年开始工作。该卫星已陨落。